This demonstration page uses our WeatherBlox Daily Observations layout. Learn more.

Left ArrowRight Arrow

31.31129, -92.44514

Hourly Observations for December 27, 2015

Temp ( °F °C ) Dew Point ( °F °C ) Humidity (%) Winds ( mph kmh ) Pressure ( in mb ) Visibility ( mi km ) Precip ( " mm )
12:50 am 00:50 Cloudy 73 23 72 22 94 94 SSE 12 19 29.83 1010 9 14 0.00 0.00
12:53 am 00:53 Cloudy 74 23.3 71 21.7 91 91 SSE 12 19 29.84 1011 9 14 0.00 0.00
1:53 am 01:53 Cloudy 74 23.3 70 21.1 88 88 SSE 12 19 29.85 1011 9 14 0.00 0.00
2:25 am 02:25 Partly Cloudy 74 23.3 70 21.1 88 88 SE 15 24 29.83 1010 9 14 0.00 0.00
2:53 am 02:53 Mostly Clear 73 22.8 70 21.1 90 90 SE 12 19 29.83 1010 8 13 0.00 0.00
3:13 am 03:13 Mostly Cloudy 72 22.2 70 21.1 94 94 SE 7 11 29.83 1010 7 11 0.00 0.00
3:53 am 03:53 Cloudy 73 22.8 70 21.1 90 90 SE 7 11 29.83 1010 8 13 0.00 0.00
4:09 am 04:09 Cloudy 72 22.2 70 21.1 94 94 SE 8 13 29.83 1010 7 11 0.00 0.00
4:22 am 04:22 Cloudy 73 22.8 70 21.1 90 90 SE 10 17 29.83 1010 7 11 0.00 0.00
4:33 am 04:33 Cloudy 72 22.2 70 21.1 94 94 SE 12 19 29.83 1010 7 11 0.00 0.00
4:53 am 04:53 Cloudy 72 22.2 70 21.1 94 94 ESE 12 19 29.82 1010 7 11 0.00 0.00
5:53 am 05:53 Cloudy 72 22.2 70 21.1 94 94 SE 13 20 29.82 1010 7 11 0.00 0.00
6:53 am 06:53 Cloudy 72 22.2 70 21.1 94 94 SE 14 22 29.81 1010 7 11 0.00 0.03
7:53 am 07:53 Cloudy with Mist and Fog 73 22.8 70 21.1 90 90 SE 17 28 29.80 1009 6 10 0.00 0.00
8:02 am 08:02 Cloudy with Mist and Fog 73 22.8 70 21.1 90 90 SE 16 26 29.80 1009 6 10 0.00 0.00
8:53 am 08:53 Cloudy 74 23.3 70 21.1 88 88 SE 15 24 29.82 1010 7 11 0.00 0.00
9:53 am 09:53 Cloudy 75 23.9 70 21.1 84 84 SE 17 28 29.80 1009 8 13 0.00 0.00
10:30 am 10:30 Cloudy 76 24.4 70 21.1 82 82 SE 14 22 29.80 1009 8 13 0.00 0.00
10:48 am 10:48 Cloudy 77 25 70 21 79 79 SSE 17 28 29.80 1009 8 13 0.00 0.00
10:53 am 10:53 Cloudy 77 25 70 21.1 79 79 SSE 13 20 29.80 1009 9 14 0.00 0.00
11:53 am 11:53 Cloudy 78 25.6 70 21.1 76 76 SE 15 24 29.75 1008 9 14 0.00 0.03
12:00 pm 12:00 Cloudy 78 25.6 70 21.1 76 76 SE 17 28 29.74 1007 9 14 0.00 0.00
12:17 pm 12:17 Cloudy with Heavy Rain 76 24.4 71 21.7 85 85 SE 18 30 29.71 1006 2 3 0.07 1.78
12:28 pm 12:28 Cloudy with Light Rain 76 24.4 72 22.2 88 88 SSE 15 24 29.71 1006 4 6 0.09 2.29
12:46 pm 12:46 Mostly Cloudy 76 24.4 71 21.7 85 85 SSE 15 24 29.71 1006 8 13 0.09 2.29
12:53 pm 12:53 Mostly Cloudy with Rain 76 24.4 71 21.7 85 85 S 14 22 29.70 1006 4 6 0.10 2.54
1:45 pm 13:45 Mostly Cloudy with Light Rain 77 25 70 21.1 79 79 S 28 44 29.68 1005 2 2 0.12 3.05
1:53 pm 13:53 Mostly Cloudy with Light Rain 75 23.9 69 20.6 82 82 S 20 31 29.67 1005 1 2 0.15 3.81
1:56 pm 13:56 Mostly Cloudy with Light Rain 76 24.4 70 21.1 82 82 S 18 30 29.68 1005 4 6 0.00 0.03
2:53 pm 14:53 Mostly Cloudy 80 26.7 70 21.1 71 71 SSE 21 33 29.66 1004 10 16 0.00 0.03
3:53 pm 15:53 Mostly Cloudy with Light Rain 76 24.4 70 21.1 82 82 S 26 43 29.65 1004 4 6 0.01 0.25
4:53 pm 16:53 Partly Cloudy with Light Rain 77 25 70 21.1 79 79 SSE 21 33 29.64 1004 10 16 0.01 0.25
5:53 pm 17:53 Mostly Cloudy with Light Rain 76 24.4 70 21.1 82 82 SSE 18 30 29.63 1003 9 14 0.04 1.02
6:53 pm 18:53 Partly Cloudy 76 24.4 69 20.6 79 79 SSE 24 39 29.61 1003 10 16 0.00 0.03
7:53 pm 19:53 Mostly Clear 76 24.4 69 20.6 79 79 SSE 28 44 29.57 1002 10 16 0.00 0.03
8:53 pm 20:53 Cloudy 76 24.4 69 20.6 79 79 SSE 24 39 29.57 1001 10 16 0.00 0.00
9:11 pm 21:11 Cloudy 76 24.4 69 20.6 79 79 SSE 22 35 29.56 1001 10 16 0.00 0.00
9:18 pm 21:18 Cloudy 76 24.4 69 20.6 79 79 SSE 31 50 29.56 1001 10 16 0.00 0.00
9:29 pm 21:29 Cloudy with Light Rain 76 24.4 69 20.6 79 79 SSE 30 48 29.56 1001 7 11 0.00 0.03
9:53 pm 21:53 Cloudy with Nearby Thunderstorms 75 23.9 70 21.1 84 84 SSE 28 44 29.56 1001 7 11 0.06 1.52
10:08 pm 22:08 Cloudy with Light Rain 76 24.4 69 20.6 79 79 SSE 30 48 29.56 1001 10 16 0.03 0.76
10:53 pm 22:53 Cloudy 75 23.9 70 21.1 84 84 SSE 24 39 29.52 1000 10 16 0.03 0.76
11:02 pm 23:02 Cloudy 76 24.4 70 21.1 82 82 SSE 25 41 29.50 999 10 16 0.00 0.00
11:45 pm 23:45 Cloudy with Nearby Thunderstorms 75 23.9 70 21.1 84 84 SSE 29 46 29.50 999 4 6 0.06 1.52
11:53 pm 23:53 Cloudy with Nearby Thunderstorms 75 23.9 70 21.1 84 84 SSE 30 48 29.49 999 5 8 0.07 1.78

Powered by AerisWeather